Home   Weather   Dubai   Past weeks

Flag for United Arab Emirates Past Weather in Dubai, Dubai, United Arab Emirates — Yesterday and Last 2 Weeks

84 °F

Passing clouds.

Feels Like: 82 °F
Forecast: 84 / 94 °F
Wind: 5 mph from Northeast

Location: Dubai International Airport

Current Time: Oct 27, 2016 at 1:36:54 AM

Latest Report: Oct 27, 2016 at 1:00 AM

Visibility: N/A

Pressure: 29.95 "Hg

Humidity: 31%

Dew Point: 50 °F

Location of DubaiLocation

Past Weather in Dubai — Graph


Dubai Temperature Yesterday

Maximum temperature yesterday: 99 °F (at 1:00 PM)
Minimum temperature yesterday: 79 °F (at 7:00 AM)
Average temperature yesterday: 89 °F

High & Low Weather Summary for the Past Weeks

High99 °F (Oct 18, 1:00 PM)84% (Oct 13, 6:00 AM)29.98 "Hg (Oct 13, 6:00 AM)
Low79 °F (Oct 12, 7:00 AM)15% (Oct 26, 1:00 PM)29.77 "Hg (Oct 12, 2:00 PM)
Average87 °F53%29.85 "Hg
* Reported Oct 12 12:00 AM — Oct 27 12:00 AM, Dubai, Weather by CustomWeather, © 2016

Note: Actual official high and low records may vary slightly from our data, if they occured in-between our weather recording intervals... More about our weather records


Dubai Weather History for the Previous 24 Hours

Scroll right to see more
Time TempWeatherWind HumidityBarometerVisibility
12:00 AM
Thu, Oct 27
86 °FPassing clouds.7 mph27%29.95 "HgN/A
11:00 PM
Wed, Oct 26
88 °FPassing clouds.7 mph25%29.98 "HgN/A
10:00 PM90 °FPassing clouds.5 mph21%29.95 "HgN/A
9:00 PM91 °FClear.8 mph18%29.95 "Hg10 mi
8:00 PM91 °FClear.8 mph21%29.95 "Hg10 mi
7:00 PM95 °FPassing clouds.6 mph16%29.92 "HgN/A
6:00 PM93 °FClear.9 mph36%29.92 "Hg10 mi
5:00 PM95 °FSunny.12 mph30%29.89 "Hg10 mi
4:00 PM95 °FSunny.16 mph26%29.89 "Hg10 mi
3:00 PM97 °FPassing clouds.14 mph30%29.89 "HgN/A
2:00 PM97 °FPassing clouds.8 mph28%29.89 "HgN/A
1:00 PM99 °FPassing clouds.12 mph15%29.92 "HgN/A
12:00 PM97 °FPassing clouds.6 mph18%29.95 "HgN/A
11:00 AM95 °FPassing clouds.12 mph16%29.98 "HgN/A
10:00 AM90 °FPassing clouds.7 mph33%29.98 "HgN/A
9:00 AM84 °FClear.6 mph58%29.98 "Hg4 mi
8:00 AM81 °FClear.6 mph70%29.95 "Hg4 mi
7:00 AM79 °FHaze.6 mph74%29.92 "Hg3 mi
6:00 AM81 °FClear.5 mph70%29.89 "Hg5 mi
5:00 AM82 °FClear.6 mph66%29.89 "Hg5 mi
4:00 AM82 °FClear.5 mph66%29.86 "Hg5 mi
3:00 AM84 °FPassing clouds.5 mph66%29.86 "HgN/A
2:00 AM86 °FPassing clouds.6 mph59%29.86 "HgN/A
1:00 AM86 °FClear.5 mph59%29.86 "Hg10 mi
Weather by CustomWeather, © 2016

See weather overviewHow to use our weather pages